Kecskemet, Hungary

3:30 PM CET on December 12, 2017 (GMT +0100)
Kecskemet

Weather History for LHKE - January, 2013

Change the Weather History Date:

Thursday, January 3, 2013

  Actual Average (LHBP) Record (LHBP)
Temperature  
Mean Temperature 33 °F -  
Max Temperature 42 °F 35 °F 53 °F (2003)
Min Temperature 24 °F 23 °F 8 °F (2002)
Degree Days  
Heating Degree Days 32    
Moisture  
Dew Point 31 °F    
Average Humidity 89    
Maximum Humidity 100    
Minimum Humidity 66    
Precipitation  
Precipitation 0.00 in - - ()
Sea Level Pressure  
Sea Level Pressure 30.45 in    
Wind  
Wind Speed 6 mph ()    
Max Wind Speed 11 mph    
Max Gust Speed -    
Visibility 4.4 miles    
Events      
Averages and records for this station are not official NWS values.
T = Trace of Precipitation, MM = Missing Value Source: Averaged Metar Reports

Daily Weather History Graph

Daily Weather History Graph

Search for Another Location

Airport or City:

Trip Planner

Search our weather history database for the weather conditions in past years. The results will help you decide how hot, cold, wet, or windy it might be!

Date:

Astronomy

Jan. 03, 2013 Rise Set
Actual Time 7:26 AM CET 4:04 PM CET
Civil Twilight 6:51 AM CET 4:39 PM CET
Nautical Twilight 6:12 AM CET 5:18 PM CET
Astronomical Twilight 5:36 AM CET 5:55 PM CET
Moon 10:47 PM CET (1/3) 10:04 AM CET (1/3)
Length of Visible Light 9h 48m
Length of Day
8h 38m
Waning Gibbous, 68% of the Moon is Illuminated
Jan 3
Waning Gibbous
Jan 5
Last Quarter
Jan 11
New
Jan 19
First Quarter
Jan 27
Full

Hourly Weather History & Observations

Time (CET) Temp. Windchill Dew Point Humidity Pressure Visibility Wind Dir Wind Speed Gust Speed Precip Events Conditions
12:15 AM 30.2 °F 23.5 °F 30.2 °F 100% 30.42 in 1.9 mi West 6.7 mph - N/A   Scattered Clouds
12:45 AM 30.2 °F 23.5 °F 30.2 °F 100% 30.42 in 2.2 mi West 6.7 mph - N/A   Partly Cloudy
1:15 AM 26.6 °F 19.2 °F 26.6 °F 100% 30.45 in 1.9 mi West 6.7 mph - N/A   Partly Cloudy
1:45 AM 26.6 °F 19.2 °F 26.6 °F 100% 30.45 in 1.9 mi West 6.7 mph - N/A   Partly Cloudy
2:15 AM 30.2 °F 23.5 °F 30.2 °F 100% 30.45 in 1.9 mi West 6.7 mph - N/A   Clear
2:45 AM 26.6 °F 19.2 °F 26.6 °F 100% 30.45 in 1.9 mi West 6.7 mph - N/A   Clear
3:15 AM 24.8 °F 19.2 °F 24.8 °F 100% 30.48 in 1.9 mi West 4.5 mph - N/A   Clear
3:45 AM 24.8 °F 19.2 °F 24.8 °F 100% 30.48 in 1.9 mi West 4.5 mph - N/A   Clear
4:15 AM 24.8 °F 19.2 °F 24.8 °F 100% 30.48 in 2.5 mi West 4.5 mph - N/A   Clear
4:45 AM 24.8 °F 19.2 °F 24.8 °F 100% 30.48 in 2.5 mi West 4.5 mph - N/A   Clear
5:15 AM 26.6 °F 21.3 °F 26.6 °F 100% 30.48 in 2.5 mi WNW 4.5 mph - N/A   Clear
5:45 AM - - - N/A% - 1.9 mi West 6.7 mph - N/A   Mist
6:07 AM 28.4 °F 23.4 °F 26.6 °F 93% 30.48 in 3.1 mi West 4.5 mph - N/A   Partly Cloudy
6:15 AM 26.6 °F 21.3 °F 26.6 °F 100% 30.48 in 3.1 mi West 4.5 mph - N/A   Partly Cloudy
6:45 AM 26.6 °F 21.3 °F 26.6 °F 100% 30.51 in 3.1 mi West 4.5 mph - N/A   Partly Cloudy
7:15 AM 26.6 °F 21.3 °F 26.6 °F 100% 30.51 in 3.1 mi West 4.5 mph - N/A   Partly Cloudy
7:45 AM 26.6 °F 21.3 °F 24.8 °F 93% 30.51 in 3.1 mi West 4.5 mph - N/A   Scattered Clouds
8:15 AM 30.2 °F 25.5 °F 28.4 °F 93% 30.51 in 3.1 mi West 4.5 mph - N/A   Scattered Clouds
8:45 AM 32.0 °F 27.6 °F 30.2 °F 93% 30.54 in 3.7 mi West 4.5 mph - N/A   Unknown
9:15 AM 32.0 °F 25.7 °F 32.0 °F 100% 30.54 in 3.7 mi West 6.7 mph - N/A   Unknown
9:45 AM 32.0 °F 27.6 °F 32.0 °F 100% 30.54 in 3.7 mi West 4.5 mph - N/A   Unknown
10:15 AM 33.8 °F 29.7 °F 32.0 °F 93% 30.54 in 3.7 mi WSW 4.5 mph - N/A   Unknown
10:45 AM 33.8 °F 29.7 °F 32.0 °F 93% 30.54 in 4.3 mi WSW 4.5 mph - N/A   Unknown
11:45 AM - - - N/A% - 6.2 mi WSW 6.7 mph - N/A   Overcast
12:15 PM 39.2 °F 34.4 °F 33.8 °F 81% 30.48 in 5.0 mi WSW 6.7 mph - N/A   Unknown
12:45 PM 41.0 °F 36.5 °F 33.8 °F 76% 30.48 in 6.2 mi WSW 6.7 mph - N/A   Mostly Cloudy
1:15 PM 42.8 °F 38.7 °F 33.8 °F 70% 30.48 in 6.2 mi WSW 6.7 mph - N/A   Mostly Cloudy
1:45 PM 42.8 °F 38.7 °F 33.8 °F 70% 30.48 in 6.2 mi WSW 6.7 mph - N/A   Mostly Cloudy
2:15 PM 42.8 °F 38.7 °F 32.0 °F 66% 30.45 in 6.2 mi WSW 6.7 mph - N/A   Mostly Cloudy
2:45 PM - - - N/A% - 6.2 mi WSW 6.7 mph - N/A   Overcast
3:15 PM 41.0 °F 36.5 °F 33.8 °F 76% 30.45 in 6.2 mi SSW 6.7 mph - N/A   Mostly Cloudy
3:45 PM 39.2 °F 34.4 °F 33.8 °F 81% 30.45 in 6.2 mi SW 6.7 mph - N/A   Mostly Cloudy
4:15 PM 37.4 °F 33.9 °F 33.8 °F 87% 30.45 in 6.2 mi SW 4.5 mph - N/A   Mostly Cloudy
4:45 PM 37.4 °F 33.9 °F 33.8 °F 87% 30.42 in 6.2 mi SW 4.5 mph - N/A   Mostly Cloudy
5:15 PM 39.2 °F 34.4 °F 33.8 °F 81% 30.42 in 6.2 mi SW 6.7 mph - N/A   Mostly Cloudy
5:45 PM - - - N/A% - 6.2 mi SW 6.7 mph - N/A   Overcast
6:15 PM 37.4 °F 32.2 °F 33.8 °F 87% 30.42 in - SW 6.7 mph - N/A   Clear
6:45 PM 37.4 °F 33.9 °F 33.8 °F 87% 30.39 in 6.2 mi SW 4.5 mph - N/A   Overcast
7:15 PM 37.4 °F 33.9 °F 33.8 °F 87% 30.39 in 6.2 mi SW 4.5 mph - N/A   Overcast
7:45 PM 39.2 °F 34.4 °F 33.8 °F 81% 30.39 in 6.2 mi SW 6.7 mph - N/A   Overcast
8:15 PM 39.2 °F 33.1 °F 33.8 °F 81% 30.39 in 6.2 mi WSW 8.9 mph - N/A   Overcast
8:45 PM - - - N/A% - 6.2 mi SW 6.7 mph - N/A   Scattered Clouds
9:15 PM 39.2 °F 33.1 °F 33.8 °F 81% 30.36 in 6.2 mi WSW 8.9 mph - N/A   Overcast
9:45 PM 39.2 °F 33.1 °F 33.8 °F 81% 30.36 in - WSW 8.9 mph - N/A   Clear
10:15 PM 41.0 °F 34.4 °F 33.8 °F 76% 30.36 in 6.2 mi West 11.2 mph - N/A   Overcast
10:45 PM 39.2 °F 32.2 °F 33.8 °F 81% 30.36 in 6.2 mi West 11.2 mph - N/A   Overcast
11:15 PM 39.2 °F 34.4 °F 33.8 °F 81% 30.33 in 6.2 mi West 6.7 mph - N/A   Mostly Cloudy
11:45 PM - - - N/A% - 6.2 mi North - - N/A   Mostly Cloudy